Regional Weather Roundup
Issued by NWS Goodland, KS

Home | Current Version | Previous Version | Text Only | Print | Product List | Glossary On
Versions: 1 2 3 4 5 6 7 8 9 10 11 12 13 14 15 16 17 18 19 20 21 22 23 24 25 26 27 28 29 30 31 32 33 34 35 36 37 38 39 40 41 42 43 44 45 46 47 48 49 50
000
ASUS43 KGLD 150208
RWRGLD

GOODLAND FORECAST AREA HOURLY WEATHER ROUNDUP
NATIONAL WEATHER SERVICE GOODLAND KS
800 PM MDT SUN SEP 14 2014

...OFFICIAL OBSERVATIONS...

CITY           SKY/WX    TMP DP  RH WIND       PRES   REMARKS
GOODLAND KS    PTCLDY    64  55  72 S9        29.98S
HILL CITY KS   CLEAR     69  60  73 E10       29.94R
IMPERIAL NEB   CLOUDY    65  58  78 SE13      29.96F
MCCOOK NEB     MOCLDY    66  59  78 N7        30.06R
AKRON CO       CLOUDY    65  56  72 SE7       30.06R
BURLINGTON CO  CLEAR     68  51  54 S9        30.00R
LIMON CO       MOCLDY    69  38  32 CALM      30.09R
$$

...UNOFFICIAL OBSERVATIONS...

CITY           SKY/WX    TMP DP  RH WIND       PRES   REMARKS
COLBY KS       CLEAR     64  61  88 NW21G26   30.03R
NORTON KS      CLEAR     63  54  72 N10       29.98R
SHARON SPRINGS   N/A     67  56  69 S8          N/A
WAKEENEY KS      N/A     73  61  65 MISG        N/A
TRENTON NEB      N/A     65  32  29 SE10        N/A
KIT CARSON CO    N/A     69  46  43 CALM        N/A
YUMA CO          N/A     68  57  68 E5G12       N/A
$$


USA.gov is the U.S. government's official web portal to all federal, state and local government web resources and services.